Location: Wald
(31.7579°N, 86.6655°W)
Time: 12:23:04
(UTC+00:00)

Resurs 01 Rocket - Pass Details

Date: 14 July 2020
Orbit: 635 x 644 km, 98.0° (Epoch: 08 August)

Event Time Altitude Azimuth Distance (km) Brightness Sun altitude
Exits shadow 01:31:16 - 114° (ESE) 2,060 3.6 -7.8°
Reaches altitude 10° 01:31:25 10° 113° (ESE) 2,018 3.5 -7.8°
Maximum altitude 01:34:25 18° 69° (ENE) 1,544 3.3 -8.4°
Drops below altitude 10° 01:37:26 10° 26° (NNE) 2,024 4.3 -8.9°
Sets 01:40:11 0° 8° (N) 2,935 5.4 -9.4°
